Weather Roundup
Issued by NWS Springfield, MO

Home | Current Version | Previous Version | Text Only | Print | Product List | Glossary On
Versions: 1 2 3 4 5 6 7 8 9 10 11 12 13 14 15 16 17 18 19 20 21 22 23 24 25 26 27 28 29 30 31 32 33 34 35 36 37 38 39 40 41 42 43 44 45 46 47 48 49 50
000
NZUS99 KSGF 300559
HRRSGF

HOURLY WEATHER
NATIONAL WEATHER SERVICE SPRINGFIELD MO
100 AM CDT SAT AUG 30 2014

......SGF CWA......

CITY           SKY/WX    TMP DP  RH WIND       PRES   REMARKS
SPRINGFIELD    FAIR      73  68  84 S14       29.96R
6HR MIN TEMP:  73; 6HR MAX TEMP:  84;

JOPLIN         MOCLDY    75  67  76 S13       29.94R
6HR MIN TEMP:  74; 6HR MAX TEMP:  85;

WEST PLAINS    CLOUDY    72  68  87 S6        30.01R
6HR MIN TEMP:  71; 6HR MAX TEMP:  76; 6HR PCP:  0.01;

ROLLA          FAIR      71  66  84 S10       29.94S
6HR MIN TEMP:  71; 6HR MAX TEMP:  76; 6HR PCP: TRACE;

OSAGE BEACH    FAIR      72  66  83 S7        29.94R

......SURROUNDING SGF CWA......

CITY           SKY/WX    TMP DP  RH WIND       PRES   REMARKS
CHANUTE        FAIR      72  67  84 S7        29.91S
PARSONS        FAIR      72  68  87 CALM      29.93R
COFFEYVILLE    FAIR      73  70  90 S5        29.91R
EMPORIA        FAIR      70  66  87 SW5       29.90S
SILOAM SPRINGS FAIR      72  63  73 S7        29.98S
HARRISON AR    FAIR      70  68  93 SE5       29.99F
NEAR YELLVILLE FAIR      72  66  83 SE3       29.98F

......KANSAS AND MISSOURI......

CITY           SKY/WX    TMP DP  RH WIND       PRES   REMARKS
KANSAS CTY INT MOCLDY    71  68  90 SW9       29.88R
DOWNTOWN KC    FAIR      73  69  87 CALM      29.87R
COLUMBIA       FAIR      71  69  93 S9        29.92R
SEDALIA        FAIR      75  67  76 S10       29.91R
ST JOSEPH      FAIR      68  66  93 S3        29.86R
ST LOUIS       CLOUDY    79  69  71 S8        29.92S
SPIRIT OF STL  FAIR      77  68  73 S5        29.90S
KIRKSVILLE     FAIR      72  69  90 S9        29.87R
WICHITA        FAIR      69  66  90 S3        29.92R
TOPEKA         FAIR      74  70  87 SW5       29.87F
OLATHE         FAIR      75  65  70 SW7       29.89R

......TENNESSEE......

CITY           SKY/WX    TMP DP  RH WIND       PRES   REMARKS
MEMPHIS        MOCLDY    81  70  69 SE3       30.00F
NASHVILLE      FAIR      72  65  78 S3        30.07R

......ARKANSAS.......

CITY           SKY/WX    TMP DP  RH WIND       PRES   REMARKS
FAYETTEVILLE   FAIR      70  68  93 CALM      29.98R
FT SMITH       FAIR      74  71  91 NE6       29.95R
LITTLE ROCK    MOCLDY    75  68  78 E3        29.98S

......OKLAHOMA.......

CITY           SKY/WX    TMP DP  RH WIND       PRES   REMARKS
TULSA          MOCLDY    78  72  81 S8        29.90R
PONCA CITY     FAIR      75  68  78 S5        29.91S
MCALESTER      CLOUDY    78  71  79 S5        29.94R
OKLAHOMA CITY  FAIR      68  65  90 S3        29.93S

......IOWA............

CITY           SKY/WX    TMP DP  RH WIND       PRES   REMARKS
DES MOINES     CLOUDY    69  67  93 SW9       29.80F
QUAD CITIES    FAIR      71  68  90 S10       29.83R

......ILLINOIS........

CITY           SKY/WX    TMP DP  RH WIND       PRES   REMARKS
QUINCY         FAIR      72  69  90 S8        29.87S
CHICAGO        CLOUDY    75  67  76 S12       29.86S



USA.gov is the U.S. government's official web portal to all federal, state and local government web resources and services.